sat.trackr.live / text

‹ back to catalog

ONEWEB-0210

NORAD 48787 · 2021-045W

PAYLOAD ACTIVE UNKNOWN

§ Identity

Operator
Country
UK
Launch date
2021-05-28
Launch site
VOSTO
Launch vehicle
Mass (kg)
RCS (m²)

Purposes: comms

External: N2YO · Heavens-Above · Gunter

§ Orbital elements

Epoch: 2026-05-25T00:44:08.230848Z

Period
109.46 min
Inclination
87.9002°
Eccentricity
0.0001851
Mean motion
13.15549719 rev/d
Perigee alt
1,200.4 km
Apogee alt
1,203.2 km
Semi-major
7,579.9 km
B*
-1.0757e-5
RAAN
263.7970°
Arg perigee
72.5036°
Mean anomaly
287.6296°
Rev number
24,127

§ Raw data

ONEWEB-02101 48787U 21045W   26145.03065082  .00000009  00000+0 -10757-4 0  99912 48787  87.9002 263.7970 0001851  72.5036 287.6296 13.15549719241275

JSON: /api/v1/satellites/48787 · /tle

For live sub-satellite position, see the globe view (requires WebGL).

§ Visibility from observer

Set your observer location to see the next 7 days of passes ≥ 10°. The values pass through the URL so the page stays shareable.

No JS? Fill the form by hand. The geolocation button needs JavaScript.